map of MMB home
MMB - Airport
Location
City:  Ozora, Hokkaido, Japan
Near (Alt.):Memanbetsu
Name:Memanbetsu Airport
ICAO:RJCM
IATA:MMB

Details
Type:Airport (Aerodrome, Airfield)
Use:Public/Civil
Latitude:4352'50"N (43.880606)
Longitude:14409'51"E (144.164053)
Datum:WGS 1984
Elevation:135 ft (41 m)
Variation:9.31W (WMM2015v2 magnetic declination)
-0.06 annual change
Runways:1
Longest:8202 × 150 ft (2500 × 45.5 m), paved

Time
Time Zone:UTC+9
Local Time:

Weather
METAR:RJCM 041142Z VRB06KT 3000 -SHSN FEW003 SCT010 BKN020 M06/M09 Q1001 RMK 1ST003 3ST010 5CU020 A2959
TAF:RJCM 041113Z 0412/0518 29016G28KT 9999 FEW008 BKN015
TEMPO 0412/0414 0700 SHSN VV005
TEMPO 0414/0416 1500 -SHSN FEW005 BKN008
BECMG 0506/0509 19007KT

Related Locations
Nearby:
Farthest:PSY: 11288 mi / 18166 km
Stanley (Port Stanley) [Port Stanley], FK

Find:

   beyond  
but within

Other Information
Maps:
NOTAMs:
Links:
Sources:

  
  • flag of Japan
  • flag of Hokkaido
  

Sectional Chart

Flight Planning
at skyvector.com

Satellite Image

Google Maps Satellite view

 

Copyright © 2004-2019 Karl L. Swartz. All rights reserved.
The Great Circle Mapper name and logo are trademarks of the Great Circle Mapper.
All other trademarks mentioned herein belong to their respective owners.
Please see credits for attibutions and further copyright information.

  Follow gcmap on Facebook Follow gcmap on Twitter GCmap on LinkedIn

hCard Microformat

Geo Microformat